Find Starlink 3139

NORAD ID: 49425 Int'l Des: 2021-104 Owner: SPXS Country: US Constellation: starlink operational
LEOCIRCULAR

現在のビュー

3D地球を読み込み中...

About Starlink 3139

Starlink 3139 (NORAD 49425) is a starlink constellation satellite (v1.5) launched Nov 13, 2021 by SPXS of US. It operates in LEO, CIRCULAR orbit with a mass of 290.00 kg.

Starlink 3139について

説明を読み込み中...

次回通過

Passes for default location (London). Set your location on the main map for personalized predictions.

高度履歴

Loading altitude history...

軌道要素

1 49425U 21104T 26170.22211725 .00000639 00000-0 58259-4 0 9991
2 49425 53.1604 133.2296 0001211 86.5194 273.5936 15.08830624253966
Epoch: Jun 19, 2026 • Age: 13 hours

現在のステータス

高度 539.7 km
速度 7.60 km/s
衛星直下点 15.20°N, 37.46°W
打ち上げ日 Nov 13, 2021
運用期間 4.5 years
タイプ internet

技術仕様

分類 Payload
質量 290.00 kg
乾燥質量 270.00 kg
総質量 290.00 kg
長さ 0.20 m
直径 2.80 m
スパン 9.00 m
形状 Box + pan
製造者 SPXS
バスタイプ Starlink
フェーズステータス In Orbit
所有者/国 SPXS/US

Most Searched